Theta_e
338 341 344 346 349 351 353 354 354 353 351 353 355 355 354 354 355 355 356 358 356 354 355 353 353 353 353 349 348 351 354 355 354 354 354 355 358 359 364 363 366 367 368 368 368 364 367 365 366 367 367 368 368 364 363 363 364 362 359 367 356 354 352 353 351 349 348 345 347 345 349 349 351 350 346 346 349 350 348 349 348 350 353 351 354
338 340 343 346 348 350 352 353 355 352 351 353 354 355 355 355 354 355 355 357 356 354 354 354 355 353 350 349 347 349 353 352 352 355 355 357 362 365 366 365 367 368 370 370 369 366 366 364 366 366 365 368 367 367 364 365 364 362 359 357 359 351 352 350 351 350 342 338 339 341 342 344 349 347 344 344 347 349 349 349 351 347 346 353 354
337 339 342 344 347 349 351 352 354 354 351 351 354 356 355 355 356 357 355 355 356 356 356 356 357 357 354 351 350 349 353 354 353 356 358 357 360 364 367 367 369 369 369 368 368 367 366 367 366 365 368 368 368 364 363 364 363 359 360 356 352 355 351 351 355 352 344 342 346 340 338 338 343 343 345 346 344 346 346 346 344 347 345 350 352
336 338 339 342 346 349 350 351 353 354 353 351 352 353 354 356 356 357 356 357 357 358 359 359 359 359 363 359 357 354 354 359 361 360 360 358 358 362 367 369 367 366 367 365 367 368 368 367 366 366 366 367 366 364 364 365 363 361 361 360 359 354 348 350 352 355 350 344 339 337 340 335 334 338 341 345 345 344 343 344 345 343 348 350 356
336 337 339 341 344 346 348 351 353 352 351 351 351 352 351 354 357 358 357 357 358 359 359 361 362 361 363 362 363 362 360 358 359 355 358 360 358 360 362 367 367 366 366 367 367 367 370 369 368 367 367 367 366 363 363 361 362 363 362 366 360 355 351 350 352 351 352 354 350 339 336 332 336 338 335 342 341 340 342 344 344 343 343 348 347
337 337 338 340 343 346 348 351 351 351 351 353 352 352 353 355 357 358 357 357 358 360 361 360 360 357 356 354 352 352 351 352 351 351 352 353 354 358 363 363 363 367 367 367 367 367 368 371 369 367 367 365 363 364 366 360 361 364 365 364 361 362 361 355 349 352 351 357 357 348 350 344 337 341 334 336 347 341 342 342 345 347 345 349 351
337 339 340 339 342 344 347 348 349 350 352 353 353 353 353 355 358 357 358 358 357 360 362 361 359 358 357 353 352 353 352 352 357 357 355 355 358 358 362 363 366 364 365 367 368 368 369 369 371 367 366 367 364 363 364 361 359 362 365 365 363 365 365 358 353 350 351 355 349 348 348 350 346 341 339 338 337 342 339 340 344 344 344 345 346
336 338 339 341 342 344 345 347 347 348 351 352 352 353 354 357 358 358 359 358 358 360 360 361 358 358 358 357 355 355 352 355 359 360 360 361 360 361 361 361 365 367 366 368 371 369 369 370 369 368 365 366 363 364 364 363 364 366 365 367 367 367 365 359 360 362 350 348 349 349 348 348 348 347 344 338 336 338 341 342 344 344 344 346 348
337 337 338 340 341 343 346 346 346 349 350 352 352 354 355 357 359 359 358 359 359 361 360 360 361 359 358 355 354 355 355 355 356 359 359 361 361 361 363 361 364 367 368 369 369 370 370 369 371 368 366 366 364 365 364 364 363 366 366 365 365 364 364 363 364 357 355 350 353 355 350 350 346 346 345 345 339 338 340 339 338 344 346 347 349
338 338 339 341 343 344 346 346 347 347 350 353 353 354 355 358 358 358 359 359 360 362 361 360 360 360 357 356 355 354 355 355 354 354 357 360 358 361 363 363 360 361 365 368 370 370 370 370 368 366 365 363 363 367 366 365 363 365 364 363 367 365 364 363 361 359 357 358 353 355 354 350 345 347 349 344 345 345 339 341 340 339 343 346 350
338 339 339 341 343 344 346 345 347 347 350 352 353 353 355 357 358 357 359 358 360 361 361 360 360 359 358 358 357 355 355 356 354 356 357 359 358 359 360 361 361 359 359 364 364 366 368 369 365 365 365 368 363 366 367 363 361 362 364 365 366 366 361 365 361 361 360 357 356 352 350 346 348 344 347 339 342 344 341 340 342 343 340 341 351
338 338 338 340 343 344 346 347 347 348 349 351 352 353 354 356 358 358 359 359 359 360 360 358 357 358 358 359 358 357 357 354 355 355 356 358 358 357 359 361 362 360 362 361 361 361 365 366 367 367 366 367 366 367 366 364 363 363 363 364 364 366 365 364 364 362 359 359 354 352 349 348 350 348 346 348 346 346 341 342 345 347 347 349 348
338 338 339 339 340 342 344 346 349 349 348 351 351 352 354 357 358 357 358 359 360 359 359 360 359 358 358 357 358 359 359 358 357 355 356 357 356 356 358 359 361 360 361 360 359 362 365 366 368 366 368 368 369 370 370 367 369 365 365 363 363 364 365 365 362 362 360 358 355 354 350 349 349 350 346 346 348 345 346 344 347 345 345 345 349
338 338 338 339 341 343 346 347 350 351 350 351 351 353 354 355 358 357 358 360 362 359 358 358 359 359 360 358 357 358 359 359 357 355 356 357 357 357 355 355 356 357 358 360 360 360 360 364 367 369 371 371 370 371 371 372 371 367 367 365 362 365 365 363 362 361 362 361 359 355 355 352 351 352 352 349 347 345 344 344 349 348 348 343 349
339 338 338 339 342 347 347 348 351 353 351 350 350 353 355 355 358 358 358 359 361 360 359 358 357 359 360 359 359 359 358 358 357 357 358 357 357 357 359 357 354 355 356 362 364 363 364 366 368 368 369 370 370 370 366 370 373 371 368 368 368 366 366 365 362 360 356 359 361 360 358 354 354 354 352 351 351 347 346 347 348 344 342 342 342
340 337 339 342 345 348 349 350 352 353 353 350 350 353 354 355 358 359 358 359 359 361 360 360 359 359 361 361 360 360 360 359 360 361 360 360 361 360 360 362 360 359 360 361 361 363 362 362 367 366 369 368 370 369 369 367 370 367 368 369 367 363 365 367 363 361 359 360 359 363 361 354 357 355 356 354 354 354 352 350 352 351 346 340 342
340 339 339 342 345 349 349 350 350 351 351 350 353 355 357 357 357 357 358 359 358 361 359 361 361 360 361 361 359 358 357 357 356 359 358 360 362 361 360 360 362 362 359 360 361 363 362 361 362 363 367 370 369 370 368 368 371 368 365 368 366 363 366 367 365 365 365 359 359 360 361 359 359 362 358 356 360 359 353 355 353 349 351 344 344
341 341 342 344 347 350 350 349 350 351 350 352 355 356 358 359 359 357 356 357 357 358 357 359 360 360 361 361 360 358 356 355 356 357 358 360 360 361 362 360 360 361 360 360 363 363 363 363 364 366 367 367 367 367 368 367 371 366 365 370 366 370 368 369 367 365 364 365 362 360 360 357 360 361 358 357 362 364 356 356 356 356 355 348 349
338 339 341 344 347 349 350 350 348 351 354 355 356 357 358 360 359 358 356 355 355 355 356 358 359 358 357 359 359 358 357 357 357 360 361 359 359 359 359 361 361 364 365 365 366 363 364 364 366 364 365 366 367 365 367 368 370 366 365 364 366 370 366 365 367 365 363 363 364 363 363 359 361 359 360 358 360 363 360 358 357 358 358 357 355
337 337 341 344 347 350 350 350 349 350 353 353 354 357 356 358 359 359 357 356 358 355 356 356 357 357 356 358 360 361 360 357 358 360 358 359 360 359 360 358 359 361 362 364 364 365 364 363 362 361 360 362 363 361 363 365 365 365 364 360 361 367 367 367 364 362 359 361 365 364 364 363 363 362 362 360 360 363 362 358 358 359 359 359 358
337 339 341 343 347 349 350 351 349 350 353 354 353 355 356 355 355 356 356 354 354 354 354 356 357 357 358 357 356 358 357 357 356 358 359 360 360 361 360 360 362 361 362 362 363 364 365 364 362 364 360 361 363 363 363 365 366 367 366 366 366 367 368 365 366 364 362 362 363 364 364 365 367 364 362 360 359 359 363 361 360 359 357 359 359
339 337 339 343 346 348 350 351 350 349 352 354 353 355 357 355 354 354 354 354 353 353 355 356 358 357 357 357 356 356 357 357 355 356 359 359 359 360 362 362 360 362 363 361 363 363 363 363 363 362 364 362 364 367 364 363 364 363 365 361 362 366 367 364 365 365 365 360 362 365 365 363 366 364 361 359 359 358 357 356 356 357 356 357 361
341 339 340 344 348 348 349 350 351 349 353 355 354 355 356 358 358 358 358 357 355 354 355 357 357 358 358 357 357 356 357 356 354 354 356 357 358 360 362 361 359 360 363 361 361 361 362 364 362 363 365 364 365 363 364 363 362 363 364 362 359 362 364 364 363 365 362 363 361 363 362 362 358 358 360 359 357 357 358 358 358 358 359 358 360
347 343 342 345 347 349 350 351 350 351 353 354 355 356 357 359 358 359 360 361 359 356 356 358 359 359 357 356 357 357 354 354 352 353 355 357 357 359 361 360 359 358 358 362 361 362 364 365 363 363 363 364 362 362 361 362 363 365 364 363 364 363 363 363 363 362 362 363 362 362 360 359 360 360 361 359 358 358 359 361 360 362 362 360 362
344 343 343 344 345 347 349 351 352 352 353 354 355 356 357 357 358 357 359 362 363 362 359 358 360 361 359 357 356 356 354 354 353 352 354 356 357 357 360 360 359 358 358 360 363 364 364 366 362 362 362 363 362 362 362 361 362 363 363 363 364 363 364 364 364 364 364 366 365 363 362 362 362 360 361 360 358 358 358 358 359 360 361 361 361
345 346 346 343 343 346 350 352 353 352 352 354 356 356 357 358 359 360 358 361 362 362 364 362 362 359 360 358 356 356 355 354 353 352 353 355 356 357 358 359 359 359 360 359 361 362 362 365 365 363 363 364 365 365 365 365 363 362 362 362 363 363 361 362 363 362 364 364 363 364 363 364 363 361 361 361 363 363 362 359 359 360 360 361 363
341 343 345 344 343 343 346 349 350 352 353 355 357 357 358 359 360 360 359 360 362 363 363 362 364 362 360 361 359 360 359 357 356 355 354 356 356 356 356 357 359 359 359 358 358 361 362 362 364 362 361 364 365 364 365 366 365 364 363 362 360 360 359 359 360 360 361 363 363 362 363 363 363 363 362 361 362 362 359 361 362 364 363 361 360
340 340 341 343 344 342 345 349 351 353 354 354 355 356 358 359 358 359 360 360 362 363 362 362 361 360 359 360 359 360 362 361 360 360 358 357 357 356 357 358 359 359 358 358 357 357 359 361 361 362 362 364 366 366 367 368 367 365 363 362 361 360 360 359 360 363 364 362 361 359 363 364 361 360 360 362 364 361 362 360 361 361 363 361 359
340 340 339 339 340 341 343 345 347 349 350 352 353 354 356 359 360 360 362 361 363 363 362 360 361 362 362 359 356 355 358 363 363 361 361 359 359 359 358 359 360 359 357 358 358 357 358 358 360 361 362 362 361 362 362 364 366 364 364 362 363 363 363 363 362 360 360 362 362 361 361 360 364 358 360 365 366 368 360 361 359 362 361 360 357
339 340 341 342 343 343 343 344 344 345 346 347 349 351 355 356 355 358 358 359 361 360 360 362 363 363 364 359 353 352 353 353 357 359 360 363 362 361 360 360 360 359 359 359 360 359 358 358 358 360 362 361 360 360 366 367 364 366 364 361 364 362 362 363 363 361 359 360 361 361 362 363 363 362 364 367 370 368 368 364 363 365 362 356 355
338 339 340 341 342 343 343 343 346 346 347 348 350 351 353 354 354 355 355 356 358 358 359 360 361 362 362 358 354 353 353 352 350 354 356 356 362 362 363 363 361 360 360 361 359 359 358 358 358 359 360 360 359 360 363 347 349 359 367 367 364 364 364 364 362 362 361 359 359 360 363 360 360 364 367 370 368 369 369 369 365 366 356 355 352
336 337 338 338 339 341 342 342 343 344 345 346 348 350 351 352 353 354 356 358 357 357 357 358 359 360 360 358 357 355 353 351 352 351 351 353 359 364 364 364 361 359 363 361 360 359 361 360 359 359 358 359 360 361 342 343 345 346 358 363 363 361 360 360 361 360 361 361 361 360 359 361 357 361 362 365 368 368 367 368 369 361 355 355 355
335 336 337 337 338 340 342 343 343 344 345 345 347 347 348 350 351 353 354 355 355 355 356 357 359 357 355 356 357 356 354 353 352 351 350 352 353 358 366 366 362 362 364 364 363 361 358 364 359 360 358 358 357 344 338 341 342 342 346 360 360 363 362 361 361 361 362 361 362 362 358 358 359 360 357 363 364 366 370 369 367 361 360 354 343
333 333 334 334 335 337 338 340 342 344 345 347 348 347 348 350 350 351 351 351 351 353 357 357 357 354 354 355 357 355 354 353 352 351 351 348 349 349 362 366 365 364 365 365 363 362 362 361 361 358 362 361 360 343 337 340 338 338 340 350 361 360 362 362 362 362 360 360 362 359 359 357 359 361 361 358 360 359 365 367 366 365 364 363 357
331 331 331 331 332 334 335 337 339 341 343 344 346 347 348 349 350 349 350 352 352 352 356 357 354 353 355 355 354 352 351 351 351 351 349 349 350 348 352 356 359 362 365 365 363 362 362 362 358 359 358 359 349 324 328 330 330 333 337 349 360 360 364 363 363 363 360 358 358 357 358 356 357 365 364 361 363 359 358 358 361 362 361 362 363
330 329 330 331 332 333 334 335 338 339 341 343 345 347 348 348 350 349 350 351 352 352 353 355 353 352 351 354 353 352 350 350 349 349 347 347 346 342 340 344 347 351 355 356 358 362 359 360 361 359 357 353 338 319 322 324 324 329 335 352 359 362 364 364 363 362 360 361 360 360 356 357 367 367 365 361 364 366 362 356 359 359 361 362 363
333 332 332 334 334 334 335 336 337 338 340 341 344 347 348 347 348 349 350 351 352 349 349 349 350 349 350 352 352 351 349 347 348 346 345 346 346 345 346 349 349 350 349 352 354 354 353 354 354 356 357 356 344 324 317 318 320 321 333 356 359 361 363 363 364 360 359 358 357 364 370 369 368 368 359 339 346 355 362 356 356 359 359 358 361
333 336 336 335 335 336 337 336 335 336 339 341 343 342 343 343 343 346 347 348 350 350 350 351 350 350 348 347 347 347 345 346 346 345 343 342 345 346 346 348 349 350 352 351 348 346 347 347 348 350 348 351 341 327 314 316 317 320 333 353 360 361 362 362 363 365 367 367 366 360 361 363 360 360 329 329 337 355 359 359 357 352 354 356 358
335 334 334 335 336 337 337 337 336 335 338 340 340 339 337 335 336 338 339 337 337 339 343 346 349 349 347 345 345 346 345 345 345 344 343 341 343 345 347 349 350 352 351 352 351 346 344 345 347 346 346 346 343 335 315 313 315 318 336 356 356 358 357 358 359 360 362 361 361 359 359 357 355 336 320 323 328 351 358 360 358 357 356 356 358
332 333 333 334 335 335 334 336 335 336 336 337 337 336 336 334 334 336 335 335 335 336 338 340 341 342 344 344 345 344 345 344 344 344 345 344 346 348 347 348 349 349 348 349 348 345 341 340 343 344 342 341 339 336 325 311 312 316 320 348 356 354 354 355 357 358 356 358 358 359 349 325 320 318 314 315 320 325 350 357 359 357 357 354 358
329 327 329 327 329 331 332 333 332 332 332 333 334 333 333 334 333 333 333 334 336 337 336 336 337 337 337 337 338 338 337 338 339 339 340 340 342 342 342 342 343 346 345 345 344 341 338 336 337 338 336 334 335 335 327 310 310 311 313 326 356 354 353 353 354 353 355 354 356 356 353 323 316 314 312 310 312 316 327 347 355 356 353 348 349
326 326 326 325 325 327 330 329 328 328 330 330 330 330 331 330 329 329 330 334 334 334 334 334 334 334 333 333 335 337 338 338 338 338 337 337 338 338 338 338 340 339 337 336 337 335 331 330 331 331 332 332 331 329 331 318 310 308 309 313 337 347 342 348 349 352 352 354 354 352 348 325 313 314 312 311 311 316 321 344 336 313 319 335 350
324 325 326 326 326 325 324 326 326 327 329 332 330 327 326 328 329 331 333 332 332 329 328 327 326 327 330 332 332 333 334 335 335 336 335 334 336 335 335 335 334 333 332 331 331 330 328 326 326 325 324 325 326 327 323 324 316 309 308 311 313 325 320 343 346 345 346 346 346 347 341 324 311 308 309 310 314 318 332 327 309 315 318 327 344
325 325 326 327 326 326 326 328 330 332 332 333 333 330 327 328 331 335 335 334 334 333 331 328 326 326 327 331 332 331 333 335 335 336 335 333 333 333 333 333 333 332 330 329 329 329 327 326 324 324 323 323 324 326 324 323 323 314 310 309 310 312 315 326 338 344 344 343 343 342 329 310 307 305 307 311 315 324 327 310 313 318 327 336 342
325 324 326 326 325 326 326 326 328 330 331 333 333 333 334 333 334 337 337 337 336 334 331 330 329 326 325 327 332 330 331 331 331 334 334 334 334 334 331 331 330 328 327 326 325 327 325 324 323 322 322 322 324 327 326 324 324 324 317 313 314 314 317 316 333 333 333 332 319 309 309 311 311 308 310 314 318 319 314 316 316 324 333 339 338
325 324 323 322 321 323 324 324 325 327 328 330 330 332 333 334 336 337 338 337 336 335 334 333 334 334 333 331 329 329 328 329 329 331 332 334 334 334 333 332 332 330 329 327 326 325 324 323 322 322 321 322 323 325 325 325 324 323 323 319 318 319 326 327 328 328 321 319 315 314 312 312 315 322 334 338 338 336 322 322 324 331 335 336 337
326 326 325 322 321 320 322 323 323 325 326 327 329 330 332 335 337 336 336 337 337 335 333 332 331 330 332 332 330 329 327 326 327 328 328 329 331 332 333 334 332 331 329 329 328 326 325 324 322 322 323 324 323 322 319 319 318 317 319 322 326 328 327 328 332 334 331 331 331 330 327 319 320 321 326 327 331 332 336 337 335 336 336 336 337
328 327 327 326 325 324 324 324 324 326 327 328 327 329 332 334 332 333 335 336 335 334 331 329 328 328 328 329 329 328 326 324 323 322 320 320 325 330 328 326 326 328 331 328 328 329 327 326 324 324 324 324 324 321 317 315 317 316 316 321 325 329 329 332 330 331 334 336 338 334 327 337 337 335 335 337 335 335 336 337 335 334 334 334 332
328 329 329 327 328 328 329 328 326 327 327 328 328 328 330 333 334 336 337 335 334 334 332 329 326 324 324 326 325 327 326 325 323 321 315 312 312 316 324 322 317 315 316 320 325 324 322 322 322 322 323 323 320 316 315 305 309 302 305 312 323 324 324 331 323 309 324 339 339 337 336 335 334 333 332 333 334 334 334 334 334 333 334 335 336
329 330 330 329 330 330 330 330 330 330 330 329 328 327 329 329 332 334 336 336 335 331 329 326 325 323 323 323 322 324 325 325 324 322 318 314 309 302 306 316 314 310 302 298 305 315 315 321 318 315 316 316 314 314 297 294 293 293 294 296 298 297 297 309 311 307 314 334 335 333 331 330 330 332 330 331 332 332 332 331 331 330 332 331 333
329 329 330 330 330 331 331 331 331 331 330 330 330 329 329 329 332 333 333 334 334 330 327 325 324 323 324 324 323 323 325 327 325 322 320 317 315 315 299 297 304 305 299 294 293 295 298 301 316 318 315 303 303 296 293 292 293 294 294 294 294 294 296 296 298 316 337 335 331 330 329 331 330 330 330 329 330 329 328 327 327 328 330 330 330
Wind_Speed
10 11 10 10 10 9 8 8 8 9 9 11 10 10 9 8 9 9 8 8 8 7 7 7 7 7 7 7 7 7 6 6 5 6 6 5 7 6 6 5 5 4 4 3 2 2 1 1 1 0 0 1 1 2 3 4 3 3 2 2 4 3 0 3 3 3 2 1 3 5 4 3 7 3 3 4 5 4 4 4 2 2 9 5 5
12 9 10 10 9 10 9 8 9 11 10 11 11 10 9 9 10 9 8 8 8 8 7 6 6 6 6 7 7 7 6 6 6 5 6 6 6 5 5 4 4 4 3 3 2 3 2 2 2 1 0 1 2 2 2 2 2 2 3 2 4 2 1 2 4 3 4 5 4 3 4 8 0 5 8 8 5 3 3 5 3 7 5 8 6
11 11 10 9 10 11 9 8 9 10 11 12 11 11 10 9 9 9 9 8 8 7 7 6 6 6 5 6 6 7 6 6 6 5 5 7 7 6 4 4 4 4 4 3 3 3 2 1 2 2 0 1 1 1 1 1 1 1 1 2 5 2 2 1 1 4 4 1 2 3 2 2 6 5 6 2 4 2 1 6 3 7 7 3 3
11 12 12 11 10 10 9 9 9 10 10 11 11 12 10 9 9 10 9 9 8 8 7 7 6 6 3 5 4 5 6 4 4 5 5 6 7 6 4 4 5 5 4 4 3 2 2 2 1 2 1 0 1 1 1 0 1 0 2 4 1 5 5 2 1 2 5 2 3 3 1 3 1 5 6 3 3 3 1 7 7 5 5 4 3
12 12 12 11 11 11 10 9 10 10 11 11 12 11 9 11 10 10 10 9 8 9 8 8 7 7 4 5 4 4 4 4 5 6 6 5 6 6 6 6 5 4 4 3 2 3 2 2 1 1 1 1 1 1 1 0 1 2 2 1 2 4 5 1 2 2 2 3 5 3 3 3 2 4 5 1 4 3 3 6 2 4 2 3 1
12 12 12 11 11 11 10 10 11 10 11 11 11 12 11 11 11 11 9 9 9 10 9 8 7 7 7 6 6 5 6 6 6 6 7 7 6 6 6 6 6 4 4 3 3 3 3 2 1 1 2 1 2 2 2 0 2 1 3 2 1 3 4 5 1 2 1 2 2 3 3 4 4 4 6 2 4 3 7 2 5 5 8 8 9
13 12 12 12 12 11 11 11 11 11 11 11 11 12 11 12 12 11 10 9 9 10 10 8 8 7 8 8 7 6 6 6 4 4 5 5 4 5 4 5 4 4 5 4 3 3 3 2 1 2 1 2 2 1 2 3 2 1 2 2 3 3 3 3 4 1 3 4 1 1 2 4 4 4 3 4 3 4 2 8 5 6 7 3 3
13 13 13 12 12 12 12 12 12 11 11 11 11 12 12 11 12 12 10 9 9 10 11 9 8 8 8 8 7 6 6 5 6 4 3 3 3 4 4 4 5 4 3 4 3 4 3 3 2 2 2 2 1 2 2 1 2 1 1 2 1 1 2 2 5 7 2 1 5 7 1 2 4 4 5 7 4 3 6 11 7 3 4 2 4
15 13 14 13 13 13 12 12 12 12 11 11 11 11 12 12 12 12 11 10 10 11 11 10 8 8 8 7 6 5 5 5 6 5 4 4 4 4 3 3 4 4 4 4 4 4 3 3 2 3 3 3 3 3 3 2 1 1 0 1 2 1 0 1 3 3 6 2 1 3 6 6 3 3 1 3 0 1 3 4 7 2 3 5 6
15 15 14 14 14 13 13 12 12 11 11 11 11 11 12 12 12 13 12 11 10 12 11 12 10 8 8 8 8 7 5 5 5 6 5 4 4 4 4 3 4 5 5 5 4 4 4 4 4 4 4 4 4 0 0 1 2 2 2 2 2 2 1 2 2 1 3 5 2 1 3 1 3 5 7 4 8 6 1 7 4 5 7 8 5
14 15 15 14 14 14 13 13 12 12 11 11 11 11 12 12 13 14 13 11 11 12 12 12 11 10 9 9 9 8 8 6 6 6 6 5 5 5 5 4 4 4 5 6 6 6 5 4 4 4 4 2 3 3 4 4 4 4 3 2 2 2 2 1 3 3 2 2 3 2 4 3 2 4 0 3 1 4 4 3 6 8 8 4 1
16 15 15 15 14 14 13 13 13 13 12 12 11 11 12 12 13 14 13 12 11 12 12 12 11 11 10 10 9 8 8 7 7 7 7 7 7 6 4 4 4 5 5 4 6 7 5 4 4 4 3 3 4 4 3 2 3 1 1 1 3 2 2 3 4 3 5 3 5 2 3 4 1 4 1 3 2 2 3 3 6 4 4 9 5
16 15 15 14 14 14 14 13 12 13 12 13 12 12 12 12 14 14 14 14 12 13 13 13 12 11 11 10 10 8 8 8 7 7 7 7 6 6 6 5 5 5 5 6 6 6 5 5 4 4 3 3 3 2 2 2 3 3 1 3 2 2 3 3 4 4 4 5 5 3 4 5 3 3 3 5 2 2 3 4 1 2 3 4 7
15 15 15 14 13 13 14 13 13 12 14 14 13 12 11 11 13 14 14 14 12 13 13 13 13 12 11 10 10 9 9 8 8 8 8 6 6 6 6 6 6 7 6 5 5 6 6 5 5 4 3 3 3 3 3 3 2 4 2 3 4 2 2 3 4 5 4 5 5 5 6 4 5 3 3 4 5 3 3 4 2 2 5 4 3
14 13 15 15 14 14 13 13 13 14 15 14 13 12 11 11 12 14 14 14 13 13 12 13 12 12 11 11 10 9 9 8 8 7 7 7 7 7 6 6 6 6 6 5 5 5 4 4 4 5 5 4 4 4 4 4 3 4 3 3 4 2 3 4 4 5 5 3 4 5 5 7 5 4 6 4 4 5 5 4 3 5 4 4 5
15 14 15 15 15 15 14 14 14 13 15 14 15 13 13 12 13 14 15 15 14 14 13 13 13 12 12 12 11 10 8 8 7 7 7 7 7 7 6 6 5 5 5 5 6 6 6 6 5 6 5 5 5 5 5 5 4 4 3 4 5 3 3 4 5 5 6 5 6 4 5 6 5 6 6 5 4 5 5 4 4 4 3 5 5
16 15 14 15 15 15 14 15 14 14 14 14 13 14 14 13 13 15 15 14 15 14 14 13 12 12 13 13 12 12 11 10 9 10 10 8 7 7 7 7 7 6 5 7 7 6 6 6 6 6 6 5 5 5 5 5 4 5 5 4 5 5 3 4 5 5 5 6 5 5 5 5 5 4 5 6 2 4 5 4 4 4 4 5 5
15 14 13 14 15 15 14 14 15 14 15 15 15 15 14 13 14 15 15 16 15 15 15 14 13 13 12 13 13 13 12 12 11 10 9 8 8 7 7 7 7 7 6 5 6 6 6 6 6 6 5 5 5 5 5 5 5 5 5 4 5 4 4 4 5 5 6 5 5 5 5 5 5 5 5 5 2 2 5 5 3 3 2 4 4
13 13 11 13 14 14 15 15 15 14 14 14 15 15 14 14 13 14 16 16 16 14 14 13 13 11 11 12 14 13 12 11 11 10 9 9 9 9 9 7 7 7 6 6 6 7 7 7 7 7 7 7 6 6 6 5 6 5 5 5 5 5 5 6 5 6 6 6 5 6 5 5 5 6 6 6 4 3 5 5 4 4 3 3 4
12 12 12 13 14 14 15 14 14 15 14 14 15 13 15 15 14 14 14 14 14 15 13 14 14 13 12 12 12 12 12 12 11 10 10 10 10 9 9 9 9 8 8 8 7 8 7 8 8 8 8 7 7 7 7 6 6 6 6 6 5 5 5 6 6 6 6 5 5 6 6 6 5 5 6 6 5 5 5 6 5 4 4 4 3
11 9 9 12 13 14 14 13 14 13 13 13 13 15 14 14 15 16 16 16 16 15 14 13 12 13 13 13 13 13 14 13 13 12 11 10 9 9 9 9 8 9 8 9 9 8 8 8 8 7 7 7 6 6 5 5 6 6 6 6 6 5 6 6 6 7 7 6 6 6 6 6 6 6 6 6 6 5 5 5 5 5 5 5 5
9 11 12 11 12 12 11 10 10 11 11 12 12 12 13 14 14 15 15 14 15 14 14 13 12 12 14 13 13 13 13 13 14 13 12 11 11 10 9 9 9 9 9 9 9 9 9 9 9 9 8 7 7 7 8 7 7 7 7 7 8 8 7 7 6 7 6 6 6 7 7 7 7 8 7 8 7 6 6 5 4 4 5 4 4
5 8 10 10 9 9 10 10 10 11 10 11 11 11 12 13 13 12 12 14 14 14 13 12 12 12 14 13 13 12 12 14 15 13 13 13 12 11 10 10 10 9 10 10 10 10 10 10 10 8 8 8 8 8 8 8 7 7 7 8 7 7 7 7 7 7 8 7 7 7 8 7 7 7 7 7 7 7 6 6 5 4 5 4 4
5 4 6 6 8 8 8 10 10 10 10 10 10 9 9 9 10 10 12 13 13 12 12 12 12 12 14 14 13 12 14 14 14 13 13 13 12 11 11 11 11 10 10 10 10 10 10 9 10 9 9 9 8 9 9 8 9 8 8 8 8 7 7 7 7 7 7 7 7 7 8 8 7 7 7 7 7 7 6 6 6 5 5 5 4
8 8 7 6 6 9 9 10 10 10 10 10 10 10 9 9 10 10 9 9 9 9 10 12 12 13 12 13 14 13 13 14 14 13 14 13 12 11 10 11 11 11 11 9 9 9 9 9 9 10 9 9 9 9 9 9 9 8 8 8 8 8 8 7 7 7 7 7 7 7 7 7 7 7 7 7 7 8 6 7 6 5 4 4 5
5 6 6 6 6 6 7 9 9 10 10 10 10 11 11 11 11 11 10 10 9 8 8 9 10 12 12 13 14 13 14 14 14 13 13 13 12 12 11 10 11 11 10 10 9 9 9 9 9 9 9 9 9 9 9 9 9 9 8 8 8 8 8 8 8 8 8 8 8 8 8 8 8 8 7 6 6 6 6 6 7 6 5 4 5
7 6 4 4 2 4 6 8 8 8 8 8 10 10 10 11 12 12 12 12 12 11 10 10 10 11 10 10 11 13 12 13 13 13 12 11 12 12 11 11 10 10 10 10 10 9 9 9 9 9 10 9 9 9 8 8 8 8 8 7 8 8 8 8 8 8 7 7 8 8 8 9 8 8 8 7 7 6 6 6 6 5 5 6 6
7 7 6 5 3 3 2 3 5 5 7 7 7 8 8 8 9 10 10 10 9 10 12 12 12 11 9 10 9 10 12 12 11 11 12 12 11 11 11 10 9 10 10 11 10 10 9 9 9 9 10 9 9 9 9 8 8 8 8 8 8 8 6 6 7 7 6 8 9 10 9 5 3 4 10 9 7 7 5 6 6 6 6 5 6
8 8 6 5 4 3 2 2 3 3 5 5 7 8 8 8 8 9 8 10 9 9 10 10 11 11 10 7 6 7 11 11 12 12 12 12 11 10 10 10 9 9 9 10 10 10 9 9 9 9 9 10 9 10 9 8 6 9 8 7 6 4 5 6 6 6 8 7 8 9 10 9 4 2 11 13 7 5 1 4 6 8 3 7 5
7 7 7 5 5 4 4 4 3 4 4 5 4 5 6 7 7 7 7 6 6 9 10 10 11 10 7 7 8 8 6 8 10 10 12 12 11 11 10 10 9 9 8 8 8 9 9 9 10 10 10 9 9 8 7 7 9 6 7 8 5 7 6 6 6 7 7 8 8 8 9 10 6 12 14 9 8 7 7 8 7 5 3 4 3
7 6 5 4 2 3 2 4 5 4 5 6 7 8 7 6 6 6 7 6 6 7 9 10 10 9 6 5 5 5 6 7 6 8 8 12 12 11 10 10 10 9 9 8 9 9 10 9 10 10 10 10 9 8 10 11 8 4 7 6 7 7 7 7 8 7 8 7 6 6 7 9 11 12 12 10 9 10 9 9 10 1 10 3 2
8 8 7 6 5 3 2 2 0 2 4 5 6 7 8 8 8 9 9 10 10 10 10 11 11 9 8 9 8 8 7 6 6 6 9 12 10 9 9 10 10 10 9 9 9 11 9 10 9 10 10 10 10 6 14 11 10 9 9 8 7 7 7 7 8 8 7 6 6 5 6 8 13 10 6 8 10 11 11 10 8 11 11 11 11
12 11 10 9 8 7 6 6 5 4 3 4 5 5 6 7 8 8 8 10 12 12 12 12 10 7 6 8 9 9 8 7 6 3 5 8 10 9 7 8 9 9 8 8 10 8 11 9 10 9 10 10 7 8 11 13 11 11 11 10 7 7 7 7 7 8 7 7 7 6 6 5 11 7 6 7 6 5 10 9 6 12 12 14 14
12 12 12 11 10 10 10 10 8 7 5 5 4 5 6 7 7 8 8 8 8 8 8 9 9 9 7 6 7 8 8 9 8 9 8 6 6 10 9 7 7 7 7 8 8 10 8 10 9 10 9 7 2 3 0 7 8 8 8 9 9 8 8 8 8 7 7 7 6 5 4 6 10 6 3 2 4 7 8 6 6 6 7 11 12
12 13 13 12 12 11 11 10 9 7 7 6 5 5 5 6 6 7 7 7 8 9 8 8 9 9 8 9 7 8 5 4 6 8 8 7 7 7 7 8 7 6 6 6 7 8 9 9 10 9 7 6 5 5 5 6 7 5 5 7 8 9 8 9 8 8 7 6 6 6 6 8 11 5 2 3 4 6 4 7 1 4 6 6 7
10 12 12 12 12 11 11 9 8 7 7 6 4 4 4 4 4 7 8 7 7 8 9 9 11 12 12 11 11 9 7 7 7 5 5 6 6 5 6 5 4 5 4 4 7 6 8 9 8 9 7 8 5 9 10 8 5 2 5 7 7 8 8 8 8 6 4 5 6 7 10 13 8 6 7 8 7 6 3 6 7 9 8 8 8
11 11 11 11 11 11 10 9 10 10 10 9 7 5 3 3 4 5 6 7 8 10 11 11 10 9 10 9 9 9 8 7 8 8 6 7 8 9 8 5 4 2 3 3 4 4 6 11 11 9 7 4 7 11 10 9 6 6 5 6 6 6 7 8 7 7 9 11 13 11 6 6 6 6 2 8 5 2 5 5 6 7 8 8 8
12 12 12 11 11 12 12 11 12 13 11 9 9 10 10 9 9 8 6 4 4 7 8 8 9 9 8 4 3 5 9 11 9 7 7 6 6 4 3 3 4 3 2 1 4 1 3 4 6 3 5 6 7 10 11 8 8 7 6 5 4 4 6 6 6 5 4 4 4 4 7 6 7 5 8 6 5 3 7 7 6 8 8 9 9
13 12 13 13 12 12 13 14 14 15 12 14 16 16 14 13 13 12 12 11 10 11 10 5 6 6 4 5 3 4 4 4 7 7 6 6 4 4 4 4 3 3 3 4 4 4 4 4 3 4 5 5 5 7 10 9 7 7 5 4 5 5 6 5 5 5 4 4 4 4 1 4 5 7 7 4 3 6 7 7 7 6 7 8 6
12 12 12 11 12 14 16 17 16 14 14 15 16 17 16 15 15 16 17 16 14 12 12 12 12 10 7 4 4 5 5 5 5 6 4 4 3 3 5 5 4 3 5 4 6 6 5 5 5 5 5 5 5 4 6 10 11 10 9 6 4 5 5 6 6 5 5 4 4 2 6 8 9 10 7 4 3 5 6 8 7 8 8 9 5
11 10 10 11 11 14 16 16 14 13 13 13 16 17 16 15 16 17 18 14 13 13 15 14 12 10 10 11 10 9 9 9 8 7 5 5 4 4 4 3 3 3 5 5 6 6 6 7 7 7 6 6 5 4 8 13 13 14 14 12 5 3 4 4 5 5 5 6 4 4 3 8 9 9 6 4 5 6 5 6 7 6 4 4 5
11 10 10 11 12 14 15 15 13 13 12 12 13 15 14 14 16 17 15 11 12 13 13 13 13 10 9 10 9 8 8 7 6 6 6 6 5 6 6 5 4 6 9 9 7 6 5 6 7 7 6 6 8 12 8 10 12 13 14 16 9 5 6 6 5 4 5 5 4 4 4 7 8 6 5 6 4 6 6 6 5 6 7 3 3
11 12 12 11 12 14 14 14 13 13 12 13 15 15 14 13 14 13 10 10 11 13 14 14 13 12 12 10 9 10 9 9 9 9 8 7 6 6 7 6 8 8 9 10 8 6 6 5 6 6 5 6 6 7 11 8 8 10 11 10 10 8 11 8 4 4 4 4 3 4 4 8 4 3 3 4 4 0 3 5 6 9 9 6 5
11 12 12 12 13 13 13 14 12 12 12 13 14 14 14 15 13 9 9 10 10 10 10 11 11 12 11 9 8 10 8 9 11 10 9 11 11 10 9 8 6 6 6 7 7 6 6 6 7 7 6 5 5 5 6 8 5 4 6 7 8 10 9 7 7 4 3 3 4 5 5 4 1 1 3 2 5 6 5 6 6 5 7 8 5
10 11 11 11 12 13 13 13 12 13 12 12 13 14 13 13 9 8 10 9 8 8 9 9 10 10 11 9 6 8 8 9 10 9 9 9 10 9 10 8 8 8 8 8 8 6 5 6 7 5 4 3 3 3 3 5 8 8 3 4 5 6 7 8 6 5 6 5 4 2 1 3 2 3 4 5 5 5 4 3 3 3 3 2 1
10 10 10 11 12 12 13 13 12 12 12 11 11 11 12 11 8 7 8 9 8 8 8 7 8 8 7 7 7 7 8 8 9 8 9 9 8 9 8 8 8 8 6 5 5 5 5 5 5 5 4 4 5 4 4 5 6 9 7 9 9 4 4 4 3 1 1 0 2 5 5 7 9 5 3 2 5 3 1 2 3 3 3 3 3
10 9 10 11 12 12 13 13 12 11 11 11 11 10 9 8 8 9 9 8 8 8 8 8 8 7 6 6 6 6 6 7 8 7 7 7 7 8 8 7 7 7 6 5 4 4 4 4 5 4 4 4 3 3 4 6 7 7 6 7 6 3 3 3 2 1 4 5 4 3 1 1 3 2 2 2 3 3 4 1 1 1 1 1 2
10 10 11 11 12 13 13 12 12 11 11 11 11 11 9 8 8 8 8 8 8 7 7 7 7 6 6 6 6 8 7 7 7 7 6 6 7 7 7 5 4 4 4 4 3 3 3 4 4 3 2 2 2 3 2 3 4 5 6 6 5 4 4 3 3 2 1 1 1 5 7 5 4 4 2 2 4 6 5 4 4 3 3 2 1
10 10 10 10 10 11 12 12 11 10 11 10 10 9 9 9 8 7 6 7 7 7 6 7 7 7 6 5 6 6 6 6 6 7 8 7 6 5 5 6 7 5 5 3 1 4 4 4 5 3 2 1 3 2 2 1 4 5 5 5 4 4 4 2 3 4 5 3 2 2 3 3 3 5 4 4 5 7 7 7 7 6 5 4 4
9 8 10 10 10 10 10 11 10 10 10 10 10 9 8 8 7 7 6 6 5 5 6 7 6 7 7 6 6 6 5 5 6 6 7 7 8 10 7 5 5 7 9 10 10 6 6 6 5 5 5 4 3 3 3 2 5 6 8 9 10 10 9 7 9 11 7 3 2 3 5 6 6 5 6 7 7 7 7 7 7 5 5 6 4
8 9 9 9 9 9 10 10 9 9 10 10 9 9 9 9 8 7 6 6 5 5 5 6 7 7 6 5 6 6 5 4 5 5 5 5 5 7 11 12 10 9 10 10 10 9 10 10 6 4 5 8 8 5 4 4 5 7 7 7 7 8 8 10 10 7 4 1 5 5 6 6 6 6 7 7 7 7 7 6 7 7 8 8 7
Wind_Direction
170 166 169 164 161 162 160 161 160 159 161 155 162 162 165 159 152 154 154 154 157 156 160 161 156 157 154 162 157 154 156 152 165 155 158 151 145 148 159 161 153 156 153 157 154 169 210 120 132 310 15 41 22 22 40 18 26 325 345 305 294 294 13 228 94 302 325 249 25 294 157 337 167 93 271 288 247 149 178 201 133 60 64 35 270
166 168 172 167 168 162 164 165 164 162 166 165 169 165 168 164 159 154 154 161 164 162 160 160 162 160 165 165 160 153 155 169 161 168 163 136 146 151 173 150 150 151 149 163 179 176 185 168 154 155 10 42 6 4 20 18 22 330 350 297 247 331 287 332 42 266 179 231 209 228 160 189 33 190 197 230 241 196 185 99 281 86 138 137 250
171 172 178 176 172 167 168 170 168 167 168 171 172 167 168 170 164 160 159 164 167 164 169 163 166 160 174 158 169 152 163 174 160 163 161 148 159 164 159 149 159 159 166 181 180 198 166 149 173 144 54 17 342 342 52 33 14 37 287 15 319 220 254 109 62 311 314 58 104 264 232 224 140 241 248 224 272 300 282 147 148 166 160 168 89
181 178 183 181 175 174 171 174 173 170 170 172 175 172 170 172 170 169 163 168 167 163 180 164 159 156 152 159 155 162 158 147 140 152 178 157 162 160 163 164 187 176 184 187 179 171 160 177 171 129 149 6 301 348 337 48 114 209 7 43 333 316 268 70 5 36 317 5 232 240 195 253 163 328 275 229 274 281 266 62 27 19 359 121 116
187 186 187 182 181 180 180 176 177 176 175 174 178 175 175 172 173 172 169 170 171 165 178 165 154 161 156 150 141 132 153 165 170 171 176 173 174 175 166 179 179 194 184 193 194 163 171 178 197 164 106 260 293 231 223 48 34 75 78 273 359 348 325 13 33 348 75 348 334 255 247 246 293 191 262 58 308 297 34 59 89 42 279 208 115
196 193 189 186 185 183 179 181 184 180 180 176 181 175 177 170 171 174 171 174 174 169 174 173 168 166 165 165 168 168 170 175 181 178 180 176 193 175 163 182 182 194 188 192 185 178 173 187 198 229 176 168 249 325 7 307 172 309 90 350 54 63 320 317 2 127 30 359 271 285 122 196 269 335 286 87 251 345 19 232 152 209 264 158 207
198 200 191 192 189 186 184 188 190 186 178 177 179 173 177 170 172 176 173 176 176 171 175 178 174 175 177 177 174 177 176 179 184 188 186 184 191 166 163 176 184 201 187 189 179 188 184 184 192 235 230 185 212 210 223 254 140 94 34 49 23 21 325 321 302 184 57 266 206 288 340 311 322 315 346 300 21 34 332 291 155 186 227 265 35
201 200 196 197 191 194 192 189 194 190 177 175 179 172 174 172 171 176 175 178 178 173 180 183 179 182 186 189 178 188 186 173 179 186 183 187 173 188 178 186 177 210 203 178 200 191 198 186 204 240 238 244 209 212 248 306 27 72 50 16 25 353 346 31 319 334 290 103 34 304 314 14 348 292 351 330 345 33 340 296 343 325 316 39 12
205 200 198 199 193 197 196 195 194 191 178 177 179 173 170 173 173 176 177 179 178 177 182 186 188 186 190 191 188 188 187 182 182 187 182 188 191 192 202 199 184 196 216 202 202 208 201 203 209 228 222 227 227 199 222 150 246 58 231 229 199 211 269 39 315 327 300 32 104 357 351 307 335 337 279 303 283 244 111 281 257 263 310 44 14
206 206 202 197 200 201 199 199 195 192 181 176 177 173 171 171 175 177 179 183 179 180 186 186 191 190 193 195 190 185 186 186 189 174 188 187 200 197 197 218 214 195 196 215 206 217 216 212 216 212 218 219 235 141 235 202 212 200 236 254 8 324 343 241 263 299 318 349 302 53 261 344 337 312 41 21 328 301 286 294 337 336 53 327 55
205 206 204 202 202 203 198 199 197 193 186 176 180 176 174 174 176 179 182 185 182 183 188 189 193 193 196 197 195 191 188 185 190 180 187 190 203 201 198 202 220 219 215 191 212 214 210 221 233 206 232 171 235 208 220 233 200 195 199 137 250 280 257 298 254 224 265 264 272 183 261 237 210 284 41 327 317 335 324 326 313 31 349 295 43
202 205 204 202 202 203 200 200 196 194 188 182 185 179 178 177 176 180 182 186 186 186 189 195 195 195 198 196 200 200 196 193 194 194 192 196 201 204 209 207 213 214 219 219 208 209 205 214 228 235 218 226 207 232 242 236 270 227 206 215 206 207 270 268 290 301 276 219 271 261 242 274 253 274 332 202 272 330 342 329 53 305 21 307 330
200 201 204 203 201 199 201 196 195 193 192 188 189 183 181 178 178 181 183 185 188 188 190 195 198 197 198 196 199 202 203 204 200 204 200 201 207 204 197 208 206 216 218 222 208 215 200 203 219 224 217 224 259 286 251 267 291 281 326 248 222 238 233 248 250 256 268 301 293 287 289 284 300 287 262 292 359 256 279 304 137 6 304 326 285
199 198 204 202 199 196 195 192 189 190 193 189 191 189 184 182 181 183 184 186 187 191 191 194 198 200 198 200 198 199 205 206 207 209 203 202 205 215 214 206 205 213 213 217 228 209 207 202 204 212 220 224 225 235 248 249 254 274 240 256 246 208 262 248 257 262 261 253 262 291 291 299 292 303 306 279 275 283 285 330 9 269 275 282 332
193 201 203 202 196 192 189 187 187 190 194 191 191 190 189 187 184 186 184 187 190 193 192 194 196 200 200 202 201 201 203 205 210 209 209 206 213 206 213 224 218 209 215 212 216 226 221 212 205 216 206 215 220 228 229 224 231 242 258 265 289 245 238 277 266 262 269 269 278 278 300 295 306 306 290 293 311 303 318 328 347 322 324 285 301
193 196 203 201 192 188 186 186 187 192 193 194 192 188 192 191 188 189 188 188 191 194 196 196 197 197 200 202 204 206 207 208 207 209 212 216 211 219 211 220 232 216 208 210 207 211 215 218 212 217 218 214 214 223 234 239 213 236 240 245 248 243 240 243 254 261 256 256 266 288 286 281 290 295 316 321 316 333 335 324 306 306 315 320 323
192 196 197 194 189 188 188 188 191 191 191 194 190 189 192 191 190 191 192 192 194 196 199 201 200 201 199 201 204 206 208 212 209 206 213 210 216 215 217 216 211 216 212 205 212 203 215 214 224 229 205 215 223 219 227 229 232 236 234 231 248 260 256 260 275 273 275 279 267 247 264 273 284 292 283 285 321 320 290 311 308 311 336 313 314
187 190 188 187 187 186 188 191 192 190 190 189 188 191 192 193 191 191 194 196 197 197 202 202 202 205 203 204 206 210 211 213 217 214 211 212 209 218 221 210 214 207 211 215 207 205 204 210 222 221 227 227 230 228 216 222 218 235 239 239 250 269 263 265 265 268 271 269 266 271 260 262 264 259 255 266 279 270 282 281 287 285 301 289 311
182 181 175 184 185 186 188 193 195 189 189 186 188 189 190 195 195 195 198 199 200 198 200 204 204 206 206 206 207 208 213 215 217 219 219 214 216 209 217 216 211 207 205 211 219 214 206 205 212 219 213 220 219 224 223 224 224 233 240 239 229 226 244 251 252 252 256 255 266 270 267 265 268 273 282 274 273 251 265 265 280 290 276 275 278
179 176 175 184 189 188 188 191 193 188 187 192 191 190 195 194 194 198 203 201 203 205 199 204 205 208 207 205 207 209 210 215 215 215 217 217 215 219 216 213 214 212 206 203 216 222 215 213 207 214 221 218 215 220 219 215 221 235 239 243 240 214 233 244 253 258 258 248 246 252 260 266 270 268 265 268 257 258 271 273 264 262 242 249 264
165 166 175 183 187 191 190 192 194 190 190 194 193 192 198 196 198 199 201 203 202 207 205 204 208 209 211 209 206 205 209 210 214 212 219 220 218 220 220 222 210 216 211 208 210 217 220 220 227 223 220 219 219 229 225 223 220 219 229 244 257 252 245 247 245 252 255 259 256 260 266 264 265 269 268 266 264 255 242 247 258 251 252 241 238
171 170 184 195 193 191 190 189 196 194 191 197 198 195 199 200 202 201 201 205 206 205 209 205 207 211 213 212 213 206 207 209 211 212 214 216 219 217 220 222 221 214 216 215 212 213 211 218 220 222 224 223 215 215 231 227 226 223 231 230 229 229 234 243 253 247 249 258 252 251 252 254 245 249 261 263 261 259 259 264 250 247 258 260 233
171 171 182 182 179 180 181 183 189 195 197 199 201 201 198 202 202 202 202 204 209 208 208 207 209 211 213 216 216 212 208 211 212 214 213 215 212 216 214 217 221 218 210 219 214 215 211 209 218 220 218 222 219 222 222 232 232 231 236 247 249 234 228 238 235 236 242 244 248 247 248 250 258 256 251 257 263 268 276 281 286 287 268 254 240
151 148 178 179 177 175 175 176 184 190 193 194 201 204 205 204 205 203 205 204 208 209 207 208 212 217 215 215 216 222 217 212 214 215 216 215 217 210 209 217 218 223 218 211 221 219 210 207 214 214 216 221 218 217 223 220 220 227 234 238 244 249 253 247 244 250 244 243 249 249 252 257 263 267 269 275 277 270 268 267 273 274 270 270 264
142 147 135 126 154 180 185 182 185 188 189 192 191 194 199 199 201 206 208 211 215 216 212 207 208 215 223 221 218 219 222 219 218 218 216 215 218 218 208 213 217 221 224 216 209 222 220 210 217 216 216 217 217 218 218 222 222 219 224 233 236 239 243 247 256 256 257 255 253 255 255 255 252 257 255 253 257 262 256 260 259 256 252 256 256
122 133 138 141 156 176 184 185 185 188 188 192 192 194 196 195 197 200 196 192 203 213 227 222 216 216 217 227 227 220 221 220 221 223 221 219 219 219 215 209 218 219 221 223 214 212 217 217 225 227 223 218 221 222 219 225 226 224 222 226 230 236 239 247 252 251 248 244 245 249 253 252 252 252 256 254 268 278 272 260 259 271 272 264 252
103 96 92 93 126 175 198 199 196 190 188 186 188 194 198 198 198 198 195 191 190 191 195 216 223 228 228 231 233 223 222 222 221 223 223 221 221 218 217 215 208 218 219 222 222 216 219 221 219 228 229 222 222 223 222 221 231 239 238 234 240 234 234 239 242 251 263 268 263 253 244 243 249 257 258 257 252 255 261 269 262 251 256 252 246
116 116 123 144 168 190 200 205 193 191 197 201 206 206 202 200 200 196 198 198 194 192 195 200 203 217 218 230 251 256 224 224 226 220 226 225 221 219 216 214 212 210 214 219 223 215 214 221 223 223 226 225 219 222 219 222 226 232 231 232 239 244 247 247 237 240 255 259 263 267 276 293 323 309 296 276 245 247 280 274 263 249 246 259 260
116 114 128 139 155 154 177 232 237 225 212 206 204 210 208 203 202 197 191 196 196 198 203 208 210 208 197 178 193 259 292 248 226 229 223 221 220 219 217 215 213 215 213 214 220 226 221 217 220 221 224 226 224 222 223 214 219 227 238 224 210 222 228 234 248 252 254 256 267 277 259 253 208 220 255 264 301 343 251 269 304 287 278 272 334
112 116 127 135 129 146 173 184 225 227 230 237 238 232 221 212 204 199 194 191 193 200 206 210 208 204 188 163 163 189 204 281 289 258 239 223 215 213 208 211 209 213 220 222 223 226 226 220 219 217 221 225 228 230 215 180 205 215 220 228 211 232 230 239 242 241 243 249 251 260 277 261 205 218 235 240 226 236 258 272 267 265 316 16 262
65 66 69 70 107 128 153 190 199 207 223 221 230 229 231 222 214 211 210 208 203 210 213 212 212 208 186 167 175 199 205 212 239 285 285 259 231 210 210 204 208 207 218 215 225 222 225 222 221 221 220 224 229 232 164 157 174 186 214 208 221 212 212 218 232 238 248 248 250 257 271 276 247 248 235 221 217 229 224 226 235 298 81 167 189
59 60 57 51 39 34 45 58 257 210 231 246 249 244 234 230 227 223 219 216 210 212 213 219 215 203 185 184 180 189 199 208 211 237 269 263 252 228 215 209 211 209 204 217 214 222 222 226 223 225 224 225 232 143 143 161 173 187 218 234 222 226 218 222 224 235 240 243 244 257 265 281 246 220 264 190 227 223 222 223 223 116 166 194 201
44 42 46 44 41 32 26 22 22 10 329 279 260 260 256 252 244 244 241 237 235 231 227 225 219 197 191 200 196 192 177 178 182 207 262 284 296 279 241 223 220 218 209 207 220 215 225 225 236 233 232 225 224 96 196 163 177 187 207 236 235 230 226 222 232 232 234 237 233 236 258 235 285 137 213 290 302 251 207 208 185 154 183 200 211
48 45 42 38 37 34 32 28 25 17 360 337 308 274 263 250 243 239 237 241 247 245 232 230 223 216 205 207 204 191 184 176 177 183 189 213 254 254 252 238 240 226 218 217 220 223 223 227 228 234 237 239 247 89 135 136 149 188 203 227 243 238 233 231 229 232 237 241 229 245 241 276 281 318 25 217 243 275 270 214 181 188 200 214 216
54 53 51 48 45 43 37 34 26 21 18 5 347 325 283 265 254 245 231 221 218 229 226 224 223 219 211 209 194 190 180 164 188 194 188 184 199 233 286 297 274 253 233 232 239 237 232 227 228 231 233 262 89 55 75 88 114 142 184 224 242 245 236 233 230 225 231 235 235 225 240 247 244 237 212 214 230 250 279 306 90 254 221 225 223
57 56 53 52 51 51 50 48 43 43 35 18 342 308 289 280 252 235 234 221 210 212 221 220 223 219 218 211 203 199 194 189 174 153 152 158 172 166 203 211 243 272 299 309 264 265 265 242 231 235 224 202 86 37 39 35 35 125 188 224 239 240 244 239 226 230 238 268 276 257 240 235 238 233 220 211 228 244 240 246 214 224 224 225 223
60 61 65 63 60 60 59 57 51 44 39 29 20 13 6 329 292 254 237 229 222 228 230 230 231 230 228 221 213 194 159 163 173 162 170 178 170 171 187 185 165 188 249 242 298 335 327 341 345 333 316 55 52 32 24 31 14 2 276 248 247 245 240 246 238 211 223 226 227 236 236 259 254 248 203 140 112 210 248 210 232 244 249 243 233
63 64 70 72 69 68 63 60 57 50 41 44 51 57 53 55 46 28 19 346 293 262 244 227 223 217 202 160 139 154 169 173 171 175 165 162 166 162 190 171 168 161 185 122 99 112 82 48 353 329 3 354 54 24 9 18 10 358 321 286 271 258 256 253 260 264 266 265 270 281 281 290 292 354 65 97 141 229 247 238 225 229 246 252 251
68 67 70 71 69 66 68 65 63 62 56 59 65 66 64 60 61 64 60 51 41 36 21 333 248 220 149 113 133 155 159 179 159 148 151 159 161 159 195 191 196 156 118 125 126 113 118 115 108 20 14 40 51 38 0 2 9 3 331 280 270 272 270 270 273 266 250 257 264 266 149 49 36 61 57 61 256 263 258 249 248 236 238 243 245
74 73 70 69 71 69 64 63 63 65 68 67 69 69 66 63 60 62 60 57 54 49 50 47 40 44 51 73 126 145 157 162 156 138 130 130 137 158 174 175 158 128 115 101 110 94 88 90 88 91 65 50 73 61 16 359 10 0 349 312 279 275 285 295 297 307 306 300 295 297 98 55 60 57 50 23 336 286 275 266 262 249 242 250 278
73 75 81 75 70 69 70 70 68 70 71 69 73 71 67 64 62 60 55 46 50 57 57 55 48 36 37 43 41 43 51 44 42 51 54 58 52 79 66 70 91 113 103 75 89 84 86 74 67 71 63 46 45 49 44 20 12 10 2 348 275 303 291 289 285 281 269 272 270 288 57 57 58 55 51 25 5 342 321 293 276 292 311 5 17
77 79 79 79 79 82 82 81 75 68 66 67 69 73 75 74 72 68 63 54 50 50 50 46 42 40 34 31 38 44 51 56 52 46 56 56 54 72 83 81 77 89 92 89 79 81 71 72 63 59 54 54 45 37 28 33 19 13 12 8 360 13 358 303 290 281 291 298 326 7 16 48 59 68 64 58 31 354 330 265 26 353 313 159 183
83 80 76 76 76 74 76 77 76 71 67 67 68 70 73 75 76 79 75 68 70 68 64 59 52 45 46 44 35 46 53 63 65 60 67 71 64 70 74 79 85 83 92 99 101 99 87 80 75 58 50 44 37 38 27 21 27 17 18 13 5 357 341 311 313 305 325 315 330 312 77 79 59 89 113 110 99 205 224 57 23 10 352 327 206
81 80 78 77 77 75 73 70 65 64 65 65 69 74 76 76 71 69 72 71 70 74 81 81 74 61 49 48 57 55 45 51 64 70 73 77 73 70 66 65 70 80 82 85 78 79 82 82 78 69 46 42 38 34 30 11 1 25 18 10 359 354 358 354 326 339 345 350 352 11 53 64 100 173 194 131 66 37 62 57 61 32 14 9 337
74 73 76 78 79 79 77 75 70 64 60 65 70 73 77 78 76 71 78 78 72 71 78 81 81 83 82 68 43 58 55 56 56 52 60 67 73 75 77 70 69 63 63 71 74 78 90 93 92 88 81 67 50 55 26 359 351 352 351 345 334 341 355 350 331 15 4 29 49 352 87 220 204 229 226 219 164 128 134 126 123 154 135 137 278
83 80 77 78 79 78 78 78 76 74 70 64 66 68 70 77 84 83 87 91 88 79 74 71 73 77 83 83 75 64 57 56 61 66 64 65 70 70 70 69 67 73 74 74 84 95 105 107 100 89 69 51 27 20 20 5 352 345 349 341 317 276 321 345 321 11 359 293 229 251 245 239 214 229 245 343 357 37 143 275 281 227 167 164 175
76 75 74 73 75 78 77 75 70 67 69 69 66 66 73 83 89 93 89 88 87 87 83 80 74 71 59 57 58 61 63 56 54 56 55 55 66 76 77 78 81 86 87 92 103 106 102 95 88 86 84 73 61 50 27 357 359 342 332 326 325 331 320 298 241 208 213 201 188 212 63 338 354 51 262 269 262 209 209 180 40 340 356 194 187
78 77 75 76 76 78 77 74 71 66 63 64 67 67 62 58 69 74 79 79 79 77 83 80 77 72 72 71 69 61 59 59 48 49 45 34 47 68 73 54 39 50 93 113 102 101 108 110 117 133 124 125 112 95 48 13 334 312 311 303 308 332 335 349 346 8 314 228 219 179 192 207 174 186 191 98 44 31 22 26 32 22 25 26 100
82 76 74 74 76 76 76 77 75 74 73 69 62 59 64 66 67 75 82 86 89 92 93 99 97 93 83 76 75 75 75 74 73 70 65 48 20 8 48 77 49 16 352 349 98 126 94 95 87 54 35 126 124 74 57 7 297 308 292 311 332 3 334 339 57 348 301 255 210 178 114 153 141 78 59 49 52 38 39 38 35 27 37 51 59
91 88 84 82 78 78 77 76 73 70 69 70 69 63 59 62 66 75 83 91 96 97 96 84 80 79 86 90 89 87 82 84 88 86 90 88 84 69 37 39 63 28 36 36 40 46 14 5 58 62 30 25 42 51 47 331 284 271 267 259 273 285 295 296 302 300 287 301 64 44 36 32 35 42 46 52 51 47 43 41 45 49 63 56 53
95 89 84 82 81 79 78 75 74 72 68 64 59 58 59 60 55 58 66 73 76 78 77 73 66 65 55 68 82 84 80 64 62 76 82 85 81 55 50 41 35 33 33 39 52 48 41 33 23 80 86 64 70 53 3 329 308 299 305 308 295 285 279 270 266 289 251 135 59 54 65 62 54 50 44 46 45 44 45 44 39 37 33 37 40